This is the latest recevied weather packets stored in our database for station/object SP2ARQ-13. If no packets are shown the sender has not sent any weather packets the latest 1 day(s).
| Time | Temp. | Humidity | Pressure | Rain* | Wind** | Luminosity | Snow |
|---|---|---|---|---|---|---|---|
| 1777831043 | 24.44° C | 33% | 1011.2 hPa | - | - | - | - |
| 1777830143 | 25° C | 33% | 1011.1 hPa | - | - | - | - |
| 1777829242 | 25.56° C | 33% | 1011.1 hPa | - | - | - | - |
| 1777828342 | 25.56° C | 33% | 1011.1 hPa | - | - | - | - |
| 1777827442 | 25.56° C | 31% | 1011.1 hPa | - | - | - | - |
| 1777826542 | 26.11° C | 30% | 1011.1 hPa | - | - | - | - |
| 1777825642 | 26.11° C | 30% | 1011.2 hPa | - | - | - | - |
| 1777824742 | 26.67° C | 29% | 1011.4 hPa | - | - | - | - |
| 1777823841 | 26.67° C | 29% | 1011.4 hPa | - | - | - | - |
| 1777822941 | 27.22° C | 29% | 1011.5 hPa | - | - | - | - |
| 1777822041 | 28.89° C | 27% | 1011.6 hPa | - | - | - | - |
| 1777821141 | 30° C | 27% | 1011.8 hPa | - | - | - | - |
| 1777820241 | 30° C | 26% | 1011.8 hPa | - | - | - | - |
| 1777819340 | 30.56° C | 26% | 1011.9 hPa | - | - | - | - |
| 1777818440 | 31.11° C | 26% | 1012.1 hPa | - | - | - | - |
| 1777817540 | 31.11° C | 25% | 1012.2 hPa | - | - | - | - |
| 1777816640 | 30.56° C | 27% | 1012.4 hPa | - | - | - | - |
| 1777815740 | 31.11° C | 27% | 1012.6 hPa | - | - | - | - |
| 1777814840 | 31.11° C | 26% | 1012.9 hPa | - | - | - | - |
| 1777813939 | 31.67° C | 26% | 1013 hPa | - | - | - | - |
| 1777813039 | 30.56° C | 27% | 1013 hPa | - | - | - | - |
| 1777812139 | 31.11° C | 28% | 1013.2 hPa | - | - | - | - |
| 1777811239 | 31.11° C | 28% | 1013.3 hPa | - | - | - | - |
| 1777810339 | 31.11° C | 28% | 1013.4 hPa | - | - | - | - |
| 1777809439 | 30.56° C | 29% | 1013.6 hPa | - | - | - | - |
* Rain since midnight (hover to see other rain measurements)
** Current wind speed in m/s (hover to see current wind gust speed)